sat.trackr.live / text

‹ back to catalog

STARLINK-35283

NORAD 66478 · 2025-262Y

PAYLOAD ACTIVE UNKNOWN

§ Identity

Operator
Country
US
Launch date
2025-11-15
Launch site
AFETR
Launch vehicle
Mass (kg)
RCS (m²)

Purposes: comms

External: N2YO · Heavens-Above · Gunter

§ Orbital elements

Epoch: 2026-09-20T08:18:23.344128Z

Period
94.27 min
Inclination
42.9995°
Eccentricity
0.0001486
Mean motion
15.27583299 rev/d
Perigee alt
482.0 km
Apogee alt
484.1 km
Semi-major
6,861.2 km
B*
2.7995e-4
RAAN
277.0974°
Arg perigee
281.7906°
Mean anomaly
78.2779°
Rev number
4,867

§ Raw data

STARLINK-352831 66478U 25262Y   26263.34610352  .00007450  00000+0  27995-3 0  99912 66478  42.9995 277.0974 0001486 281.7906  78.2779 15.27583299 48675

JSON: /api/v1/satellites/66478 · /tle

For live sub-satellite position, see the globe view (requires WebGL).

§ Visibility from observer

Set your observer location to see the next 7 days of passes ≥ 10°. The values pass through the URL so the page stays shareable.

No JS? Fill the form by hand. The geolocation button needs JavaScript.